Regional Weather Roundup
Issued by NWS

Home | Current Version | Previous Version | Graphics & Text | Print | Product List | Glossary On
Versions: 1 2 3 4 5 6 7 8 9 10 11 12 13 14 15 16 17 18 19 20 21 22 23 24 25 26 27 28 29 30 31 32 33 34 35 36 37 38 39 40 41 42 43 44 45 46 47 48 49 50
000
ASUS43 KTOP 230259
RWRKS

WEATHER ROUNDUP FOR KANSAS
NATIONAL WEATHER SERVICE GOODLAND KS
1000 PM CDT TUE APR 22 2014

NOTE:  "FAIR" INDICATES FEW OR NO CLOUDS BELOW 12,000 FEET WITH NO
SIGNIFICANT WEATHER AND/OR OBSTRUCTIONS TO VISIBILITY.

KSZ001>006-013>018-027>032-041>047-230400-
NORTHWEST KANSAS

CITY           SKY/WX    TMP DP  RH WIND       PRES   REMARKS
GOODLAND       MOCLDY    62  48  60 S25G32    29.77R
HAYS           CLOUDY   N/A N/A N/A SE22G30   29.85S
HILL CITY      MOCLDY    66  35  31 S22G32    29.83S
RUSSELL        CLOUDY    64  32  30 SE20      29.85F
$$

KSZ061>065-074>080-084>089-230400-
SOUTHWEST KANSAS

CITY           SKY/WX    TMP DP  RH WIND       PRES   REMARKS
DODGE CITY     PTCLDY    65  33  30 SE22      29.86S
ELKHART          N/A     73  41  31 S16         N/A
GARDEN CITY    MOCLDY    66  48  52 S16G31    29.84R
GREAT BEND     CLOUDY    64  30  27 SE18      29.87F
LIBERAL        PTCLDY    70  45  40 S21G28    29.84S
$$

KSZ066>073-081>083-090>101-230400-
SOUTHEAST KANSAS

CITY           SKY/WX    TMP DP  RH WIND       PRES   REMARKS
CHANUTE        PTCLDY    57  37  47 E7        29.99R
COFFEYVILLE    PTCLDY    58  37  45 E3        29.98R
HUTCHINSON     CLOUDY    62  30  29 SE12      29.93S
NEWTON         MOCLDY    54  28  37 SE8       30.00R
PARSONS        PTCLDY    53  37  54 CALM      29.99R
WICHITA INTL   CLOUDY    63  32  31 SE8       29.96R
WICHITA JABRA  CLOUDY    59  33  37 SE7       29.96R
WINFIELD       MOCLDY    62  36  37 SE6       29.97R
$$

KSZ007>012-019>026-033>040-048>060-102>105-230400-
NORTHEAST KANSAS

CITY           SKY/WX    TMP DP  RH WIND       PRES   REMARKS
CONCORDIA      CLEAR     60  31  33 SE13      29.92R
EMPORIA        PTCLDY    56  35  45 SE7       29.97R
LAWRENCE       CLEAR     52  38  58 E5        30.00R
MANHATTAN      CLEAR     57  33  40 CALM      29.97R
OLATHE IND     CLEAR     57  33  40 SE6       30.01R
OLATHE EXE     CLEAR     58  31  35 SE6       30.00R
SALINA         MOCLDY    63  32  31 SE13      29.93S
TOPEKA BILLARD CLEAR     61  34  36 E3        29.99R
TOPEKA FORBES  CLEAR     57  34  41 E5        29.98S
$$



USA.gov is the U.S. government's official web portal to all federal, state and local government web resources and services.